Tracking 30102 objects as of 12-Dec-2024
HD Live streaming from Space Station
objects crossing your sky now

STARLINK-6360

Track STARLINK-6360 now!
10-day predictions
STARLINK-6360 is classified as:


NORAD ID: 57235
Int'l Code: 2023-094T
Perigee: 565.2 km
Apogee: 567.0 km
Inclination: 43.0 °
Period: 95.8 minutes
Semi major axis: 6937 km
RCS: Unknown
Launch date: July 7, 2023
Source: United States (US)
Launch site: AIR FORCE WESTERN TEST RANGE (AFWTR)
Your satellite tracking list
Your tracking list is empty




NASA's NSSDC Master Catalog

Two Line Element Set (TLE):
1 57235U 23094T   24347.31330546 -.00006580  00000-0 -47212-3 0  9995
2 57235  43.0055 328.1741 0001291 275.6036  84.4659 15.02562971 79076
Source of the keplerian elements: AFSPC